Regional Weather Roundup
Issued by NWS Sioux Falls, SD

Home | Current Version | Previous Version | Text Only | Print | Product List | Glossary On
Versions: 1 2 3 4 5 6 7 8 9 10 11 12 13 14 15 16 17 18 19 20 21 22 23 24 25 26 27 28 29 30 31 32 33 34 35 36 37 38 39 40 41 42 43 44 45 46 47 48 49 50
000
ASUS43 KFSD 171902
RWRFSD

WEATHER ROUNDUP FOR SE SOUTH DAKOTA/SW MINNESOTA/NW IOWA
NATIONAL WEATHER SERVICE SIOUX FALLS SD
200 PM CDT WED SEP 17 2014

NOTE: "FAIR" INDICATES FEW OR NO CLOUDS BELOW 12,000 FEET WITH NO
SIGNIFICANT WEATHER AND OR OBSTRUCTIONS TO VISIBILITY.


SDZ038>040-050-052>070-172000-
SOUTHEAST SOUTH DAKOTA

CITY           SKY/WX    TMP DP  RH WIND       PRES   REMARKS
CHAMBERLAIN    SUNNY     76  55  48 E8        29.93F
HURON          SUNNY     77  54  44 N8        29.92F
MADISON        FAIR      72  57  60 NE8       29.94F
MITCHELL       SUNNY     76  56  49 CALM      29.93F
SIOUX FALLS    PTSUNNY   74  58  57 SE5       29.92F
WINNER         FAIR      78  56  46 E8        29.93F
YANKTON        SUNNY     75  59  57 E3        29.91F
$$

MNZ071-072-080-081-089-090-097-098-172000-
SOUTHWEST MINNESOTA

CITY           SKY/WX    TMP DP  RH WIND       PRES   REMARKS
FAIRMONT       MOSUNNY   73  50  43 SE3       29.94F
JACKSON        PTSUNNY   73  54  49 NE3       29.95S
LUVERNE        SUNNY     73  55  53 CALM      29.93F
MARSHALL       SUNNY     72  55  56 E6        29.93F
MONTEVIDEO     SUNNY     77  57  50 CALM      29.95S
PIPESTONE      MOSUNNY   72  57  60 SE5       29.94S
REDWOOD FALLS  SUNNY     73  54  51 CALM      29.93F
TRACY          MOSUNNY   72  58  61 CALM      29.95S
WINDOM         MOSUNNY   72  55  56 E3        29.94F
WORTHINGTON    SUNNY     72  55  56 SW6       29.95S
$$

IAZ001>003-012>014-020>022-031-032-NEZ013-014-SDZ071-172000-
NORTHWEST IOWA

CITY           SKY/WX    TMP DP  RH WIND       PRES   REMARKS
CHEROKEE       SUNNY     75  56  50 SE3       29.92F
DENISON        SUNNY     75  57  53 S5        29.91F
ESTHERVILLE    SUNNY     72  57  59 CALM      29.94S
LE MARS        SUNNY     75  59  57 SW3       29.92F
ORANGE CITY    SUNNY     77  57  50 SE3       29.92F
SHELDON        SUNNY     75  59  57 VRB3      29.92F
SIOUX CITY     SUNNY     78  61  55 VRB6      29.91F
SPENCER        MOSUNNY   72  57  59 SE9       29.93F
STORM LAKE     SUNNY     73  57  56 E7G13     29.94S
$$

ABBREVIATIONS USED IN REMARKS
   TC - TEMPERATURE IN CELSIUS
  WCI - WIND CHILL INDEX
   HX - HEAT INDEX
  VSB - VISIBILITY



USA.gov is the U.S. government's official web portal to all federal, state and local government web resources and services.